Location: Madrid
(40.4167°N, 3.7036°W)
Time: 08:47:50
(UTC+00:00)

ISS - Pass Details

Date: 12 May 2025
Orbit: 416 x 420 km, 51.6° (Epoch: 12 May)

Event Time Altitude Azimuth Distance (km) Brightness Sun altitude
Rises 19:19:33 0° 220° (SW) 2,346 0.3 -0.5°
Reaches altitude 10° 19:21:40 10° 215° (SW) 1,487 -0.8 -0.8°
Maximum altitude 19:24:54 51° 139° (SE) 530 -3.5 -1.4°
Drops below altitude 10° 19:28:11 10° 62° (ENE) 1,494 -1.3 -2.0°
Sets 19:30:18 0° 57° (ENE) 2,360 -0.3 -2.3°
